Weather History for Bowling Green, KY

Change the Weather History Date:

Friday, March 29, 2013

  Actual Average Record
Temperature  
Mean Temperature 46 °F 52 °F  
Max Temperature 50 °F 64 °F 89 °F (1910)
Min Temperature 42 °F 40 °F 15 °F (1887)
Degree Days  
Heating Degree Days 19 13  
Month to date heating degree days 654 495  
Since 1 July heating degree days 3549 3693  
Cooling Degree Days 0 0  
Month to date cooling degree days 0 0  
Year to date cooling degree days 0 0  
Moisture  
Dew Point 41 °F    
Average Humidity 76    
Maximum Humidity 93    
Minimum Humidity 58    
Precipitation  
Precipitation 0.16 in 0.16 in 4.03 in (1976)
Month to date precipitation 4.77 4.11  
Year to date precipitation 12.46 11.68  
Snow  
Snow 0.00 in 0.00 in 2.00 in (1894)
Month to date snowfall 2.5 1.0  
Since 1 July snowfall 3.8 8.8  
Snow Depth 0.00 in    
Sea Level Pressure  
Sea Level Pressure 30.27 in    
Wind  
Wind Speed 2 mph (ESE)    
Max Wind Speed 9 mph    
Max Gust Speed 16 mph    
Visibility 8 miles    
Events Rain    
T = Trace of Precipitation, MM = Missing Value Source: NWS Daily Summary

Daily Weather History Graph

Daily Weather History Graph

Search for Another Location

Airport:

Trip Planner

Search our weather history database for the weather conditions in past years. The results will help you decide how hot, cold, wet, or windy it might be!

Date:

Astronomy

Mar. 29, 2013 Rise Set
Actual Time 6:35 AM CDT 7:05 PM CDT
Civil Twilight 6:09 AM CDT 7:31 PM CDT
Nautical Twilight 5:38 AM CDT 8:02 PM CDT
Astronomical Twilight 5:07 AM CDT 8:33 PM CDT
Moon 10:00 PM CDT (3/29) 7:48 AM CDT (3/29)
Length of Visible Light 13h 22m
Length of Day
12h 30m
Waning Gibbous, 93% of the Moon is Illuminated
Mar 29
Waning Gibbous
Apr 2
Last Quarter
Apr 10
New
Apr 18
First Quarter
Apr 25
Full

Hourly Weather History & Observations

Time (CDT) Temp. Windchill Dew Point Humidity Pressure Visibility Wind Dir Wind Speed Gust Speed Precip Events Conditions
12:53 AM 44.1 °F 42.5 °F 32.0 °F 63% 30.31 in 10.0 mi NNE 3.5 mph - N/A   Overcast
1:53 AM 44.1 °F - 30.9 °F 60% 30.31 in 10.0 mi Calm Calm - N/A   Overcast
2:53 AM 42.1 °F - 33.1 °F 70% 30.30 in 10.0 mi Calm Calm - N/A   Overcast
3:53 AM 44.1 °F - 30.9 °F 60% 30.30 in 10.0 mi Calm Calm - N/A   Overcast
4:53 AM 44.1 °F - 30.9 °F 60% 30.30 in 10.0 mi Calm Calm - 0.00 in   Overcast
5:53 AM 43.0 °F 41.3 °F 33.1 °F 68% 30.30 in 10.0 mi NE 3.5 mph - N/A   Overcast
6:53 AM 44.1 °F - 33.1 °F 65% 30.32 in 10.0 mi Calm Calm - 0.00 in Rain Light Rain
7:53 AM 44.1 °F - 37.0 °F 76% 30.34 in 8.0 mi Calm Calm - 0.01 in Rain Light Rain
8:53 AM 43.0 °F - 37.9 °F 82% 30.34 in 10.0 mi Calm Calm - 0.01 in Rain Light Rain
9:53 AM 45.0 °F 43.5 °F 39.0 °F 80% 30.34 in 7.0 mi SSE 3.5 mph - 0.02 in Rain Light Rain
10:53 AM 45.0 °F 41.8 °F 39.9 °F 82% 30.35 in 6.0 mi South 5.8 mph - 0.03 in Rain Light Rain
11:53 AM 46.0 °F 43.1 °F 43.0 °F 89% 30.32 in 5.0 mi ESE 5.8 mph - 0.05 in Rain Light Rain
12:26 PM 46.4 °F 42.9 °F 44.6 °F 93% 30.30 in 4.0 mi ESE 6.9 mph - 0.02 in Rain Light Rain
12:53 PM 46.9 °F - 44.1 °F 90% 30.29 in 5.0 mi ESE 4.6 mph - 0.03 in Rain Light Rain
1:53 PM 48.0 °F - 44.1 °F 86% 30.27 in 9.0 mi SE 4.6 mph - 0.00 in   Overcast
2:53 PM 48.9 °F - 45.0 °F 86% 30.25 in 3.0 mi SE 3.5 mph - N/A   Overcast
3:02 PM 48.2 °F - 44.6 °F 87% 30.25 in 2.0 mi SE 3.5 mph - 0.01 in Rain Light Rain
3:15 PM 48.2 °F - 44.6 °F 87% 30.24 in 2.5 mi SE 3.5 mph - 0.01 in   Overcast
3:28 PM 48.2 °F - 44.6 °F 87% 30.24 in 3.0 mi ESE 4.6 mph - 0.01 in   Overcast
3:36 PM 48.2 °F - 46.4 °F 93% 30.24 in 5.0 mi ESE 4.6 mph - 0.01 in   Overcast
3:53 PM 48.9 °F - 45.0 °F 86% 30.24 in 6.0 mi ESE 4.6 mph - 0.01 in   Overcast
4:13 PM 48.2 °F - 44.6 °F 87% 30.23 in 10.0 mi SE 5.8 mph - N/A   Overcast
4:21 PM 48.2 °F - 44.6 °F 87% 30.22 in 10.0 mi SE 5.8 mph - N/A   Overcast
4:53 PM 48.9 °F - 45.0 °F 86% 30.22 in 10.0 mi ESE 3.5 mph - N/A   Overcast
5:09 PM 48.2 °F - 44.6 °F 87% 30.22 in 10.0 mi East 3.5 mph - N/A   Overcast
5:29 PM 50.0 °F - 44.6 °F 82% 30.22 in 10.0 mi East 4.6 mph - N/A   Overcast
5:53 PM 48.9 °F - 45.0 °F 86% 30.23 in 10.0 mi East 3.5 mph - N/A   Overcast
6:53 PM 48.9 °F - 45.0 °F 86% 30.23 in 10.0 mi ENE 3.5 mph - N/A   Overcast
7:32 PM 48.2 °F - 44.6 °F 87% 30.23 in 10.0 mi NE 4.6 mph - N/A   Overcast
7:53 PM 48.0 °F - 45.0 °F 89% 30.24 in 9.0 mi NE 4.6 mph - N/A   Overcast
8:24 PM 48.2 °F - 44.6 °F 87% 30.23 in 10.0 mi ENE 4.6 mph - N/A   Overcast
8:53 PM 48.0 °F - 44.1 °F 86% 30.24 in 10.0 mi East 4.6 mph - N/A   Overcast
9:44 PM 48.2 °F - 44.6 °F 87% 30.24 in 8.0 mi East 3.5 mph - N/A   Overcast
9:53 PM 46.9 °F - 44.1 °F 90% 30.25 in 7.0 mi Calm Calm - N/A   Overcast
10:15 PM 46.4 °F - 44.6 °F 93% 30.24 in 7.0 mi Calm Calm - N/A   Overcast
10:53 PM 45.0 °F - 43.0 °F 93% 30.25 in 5.0 mi Calm Calm - N/A   Overcast
11:53 PM 46.0 °F - 43.0 °F 89% 30.23 in 6.0 mi Calm Calm - N/A   Overcast